sat.trackr.live / text

‹ back to catalog

STARLINK-31420

NORAD 59223 · 2024-046Y

PAYLOAD ACTIVE UNKNOWN

§ Identity

Operator
Country
US
Launch date
2024-03-11
Launch site
AFWTR
Launch vehicle
Mass (kg)
RCS (m²)

Purposes: comms

External: N2YO · Heavens-Above · Gunter

§ Orbital elements

Epoch: 2026-05-25T00:36:48.461760Z

Period
94.10 min
Inclination
53.1593°
Eccentricity
0.0000990
Mean motion
15.30208367 rev/d
Perigee alt
474.5 km
Apogee alt
475.9 km
Semi-major
6,853.3 km
B*
8.8008e-5
RAAN
160.9901°
Arg perigee
129.5044°
Mean anomaly
230.6045°
Rev number
12,472

§ Raw data

STARLINK-314201 59223U 24046Y   26145.02556090  .00002249  00000+0  88008-4 0  99962 59223  53.1593 160.9901 0000990 129.5044 230.6045 15.30208367124729

JSON: /api/v1/satellites/59223 · /tle

For live sub-satellite position, see the globe view (requires WebGL).

§ Visibility from observer

Set your observer location to see the next 7 days of passes ≥ 10°. The values pass through the URL so the page stays shareable.

No JS? Fill the form by hand. The geolocation button needs JavaScript.